When you browse on this site, cookies collect data to enhance your experience and personalize the content and advertising you see.
Visit our Privacy Policy to learn more. By continuing to use the site, you agree to this use of cookies and data.
EN

Hourly Weather Muchkapskiy

Today, 18 September, Friday

Time Temperature Precipitation Wind Pressure Humidity
00:00 +16°C° 0 mm 7 mps 748 mmHg 32%
01:00 +16°C° 0 mm 8 mps 747 mmHg 32%
02:00 +16°C° 0 mm 8 mps 747 mmHg 31%
03:00 +16°C° 0 mm 9 mps 746 mmHg 30%
04:00 +15°C° 0 mm 8 mps 746 mmHg 29%
05:00 +15°C° 0 mm 7 mps 746 mmHg 29%
06:00 +15°C° 0 mm 6 mps 746 mmHg 29%
07:00 +15°C° 0 mm 6 mps 746 mmHg 38%
08:00 +15°C° 0 mm 5 mps 746 mmHg 47%
09:00 +15°C° 0 mm 4 mps 746 mmHg 59%
10:00 +15°C° 0.2 mm 4 mps 746 mmHg 62%
11:00 +14°C° 0.2 mm 4 mps 746 mmHg 65%
12:00 +13°C° 0.2 mm 4 mps 745 mmHg 68%
13:00 +13°C° 1.2 mm 3 mps 745 mmHg 73%
14:00 +13°C° 1.2 mm 2 mps 745 mmHg 78%
15:00 +13°C° 0 mm 2 mps 745 mmHg 80%
16:00 +13°C° 0 mm 2 mps 745 mmHg 78%
17:00 +13°C° 0 mm 2 mps 745 mmHg 75%
18:00 +13°C° 0 mm 2 mps 745 mmHg 72%
19:00 +12°C° 0 mm 2 mps 745 mmHg 74%
20:00 +10°C° 0 mm 3 mps 745 mmHg 75%
21:00 +9°C° 0 mm 3 mps 745 mmHg 77%
22:00 +9°C° 0 mm 3 mps 745 mmHg 79%
23:00 +8°C° 0 mm 3 mps 745 mmHg 81%

Tomorrow, 19 September, Saturday

Time Temperature Precipitation Wind Pressure Humidity
00:00 +8°C° 0 mm 3 mps 745 mmHg 83%
01:00 +7°C° 0 mm 3 mps 745 mmHg 86%
02:00 +7°C° 0 mm 3 mps 745 mmHg 89%
03:00 +5°C° 0 mm 3 mps 745 mmHg 92%
04:00 +5°C° 0 mm 3 mps 745 mmHg 93%
05:00 +5°C° 0 mm 4 mps 745 mmHg 94%
06:00 +5°C° 0 mm 4 mps 745 mmHg 95%
07:00 +6°C° 0 mm 5 mps 745 mmHg 90%
08:00 +7°C° 0 mm 6 mps 746 mmHg 85%
09:00 +8°C° 0 mm 6 mps 746 mmHg 80%
10:00 +9°C° 0 mm 6 mps 746 mmHg 78%
11:00 +10°C° 0 mm 7 mps 746 mmHg 75%
12:00 +10°C° 0 mm 7 mps 746 mmHg 73%
13:00 +10°C° 0 mm 7 mps 746 mmHg 69%
14:00 +10°C° 0 mm 8 mps 747 mmHg 64%
15:00 +11°C° 0 mm 8 mps 747 mmHg 60%
16:00 +10°C° 0 mm 7 mps 747 mmHg 63%
17:00 +10°C° 0 mm 6 mps 747 mmHg 65%
18:00 +10°C° 0 mm 5 mps 748 mmHg 68%
19:00 +9°C° 0 mm 5 mps 748 mmHg 72%
20:00 +10°C° 0 mm 4 mps 748 mmHg 76%
21:00 +8°C° 0 mm 4 mps 748 mmHg 79%
22:00 +8°C° 0 mm 4 mps 748 mmHg 80%
23:00 +8°C° 0 mm 4 mps 748 mmHg 81%

Day after tomorrow, 20 September, Sunday

Time Temperature Precipitation Wind Pressure Humidity
00:00 +7°C° 0 mm 4 mps 747 mmHg 82%
01:00 +7°C° 0 mm 4 mps 747 mmHg 84%
02:00 +7°C° 0 mm 4 mps 747 mmHg 87%
03:00 +7°C° 0 mm 4 mps 747 mmHg 89%
04:00 +7°C° 0.1 mm 5 mps 748 mmHg 88%
05:00 +7°C° 0.1 mm 5 mps 748 mmHg 86%
06:00 +7°C° 0.1 mm 6 mps 748 mmHg 85%
07:00 +8°C° 0 mm 6 mps 748 mmHg 78%
08:00 +9°C° 0 mm 7 mps 748 mmHg 71%
09:00 +10°C° 0 mm 7 mps 749 mmHg 64%
10:00 +10°C° 0 mm 7 mps 749 mmHg 60%
11:00 +11°C° 0 mm 7 mps 749 mmHg 56%
12:00 +11°C° 0 mm 8 mps 750 mmHg 52%
13:00 +12°C° 0 mm 8 mps 750 mmHg 51%
14:00 +12°C° 0 mm 8 mps 750 mmHg 49%
15:00 +12°C° 0 mm 8 mps 751 mmHg 47%
16:00 +11°C° 0 mm 6 mps 751 mmHg 50%
17:00 +10°C° 0 mm 5 mps 752 mmHg 52%
18:00 +10°C° 0 mm 4 mps 752 mmHg 54%
19:00 +9°C° 0 mm 3 mps 752 mmHg 58%
20:00 +9°C° 0 mm 3 mps 753 mmHg 61%
21:00 +8°C° 0 mm 3 mps 753 mmHg 65%
22:00 +7°C° 0 mm 3 mps 754 mmHg 68%
23:00 +7°C° 0 mm 3 mps 754 mmHg 72%

21 September, Monday

Time Temperature Precipitation Wind Pressure Humidity
00:00 +5°C° 0 mm 3 mps 754 mmHg 75%
01:00 +5°C° 0 mm 3 mps 754 mmHg 77%
02:00 +5°C° 0 mm 3 mps 754 mmHg 78%
03:00 +4°C° 0 mm 3 mps 754 mmHg 80%
04:00 +4°C° 0 mm 3 mps 754 mmHg 82%
05:00 +4°C° 0 mm 3 mps 754 mmHg 84%
06:00 +4°C° 0 mm 3 mps 754 mmHg 86%
07:00 +6°C° 0 mm 4 mps 754 mmHg 78%
08:00 +8°C° 0 mm 5 mps 755 mmHg 69%
09:00 +10°C° 0 mm 6 mps 755 mmHg 61%
10:00 +11°C° 0 mm 6 mps 754 mmHg 56%
11:00 +13°C° 0 mm 6 mps 754 mmHg 51%
12:00 +15°C° 0 mm 6 mps 754 mmHg 47%
13:00 +15°C° 0 mm 6 mps 753 mmHg 46%
14:00 +15°C° 0 mm 6 mps 753 mmHg 45%
15:00 +16°C° 0 mm 7 mps 753 mmHg 44%
16:00 +15°C° 0 mm 6 mps 753 mmHg 48%
17:00 +14°C° 0 mm 5 mps 752 mmHg 53%
18:00 +12°C° 0 mm 4 mps 752 mmHg 58%
19:00 +12°C° 0 mm 4 mps 752 mmHg 61%
20:00 +11°C° 0 mm 4 mps 753 mmHg 65%
21:00 +10°C° 0 mm 4 mps 753 mmHg 68%
22:00 +10°C° 0 mm 4 mps 753 mmHg 71%
23:00 +8°C° 0 mm 4 mps 753 mmHg 74%

22 September, Tuesday

Time Temperature Precipitation Wind Pressure Humidity
00:00 +9°C° 0 mm 3 mps 753 mmHg 76%
01:00 +9°C° 0 mm 3 mps 753 mmHg 79%
02:00 +9°C° 0 mm 3 mps 753 mmHg 82%
03:00 +8°C° 0 mm 3 mps 753 mmHg 84%
04:00 +8°C° 0 mm 3 mps 754 mmHg 87%
05:00 +8°C° 0 mm 2 mps 754 mmHg 90%
06:00 +7°C° 0 mm 2 mps 754 mmHg 92%
07:00 +9°C° 0 mm 2 mps 755 mmHg 86%
08:00 +12°C° 0 mm 2 mps 755 mmHg 79%
09:00 +14°C° 0 mm 2 mps 756 mmHg 72%
10:00 +15°C° 0 mm 2 mps 756 mmHg 66%
11:00 +17°C° 0 mm 3 mps 756 mmHg 59%
12:00 +19°C° 0 mm 3 mps 756 mmHg 53%
13:00 +19°C° 0 mm 3 mps 756 mmHg 52%
14:00 +19°C° 0 mm 2 mps 756 mmHg 51%
15:00 +19°C° 0 mm 2 mps 756 mmHg 50%
16:00 +18°C° 0 mm 2 mps 756 mmHg 54%
17:00 +16°C° 0 mm 1 mps 756 mmHg 58%
18:00 +14°C° 0 mm 0 mps 756 mmHg 63%
19:00 +15°C° 0 mm 1 mps 756 mmHg 65%
20:00 +14°C° 0 mm 1 mps 756 mmHg 68%
21:00 +13°C° 0 mm 1 mps 756 mmHg 70%
22:00 +13°C° 0 mm 1 mps 757 mmHg 71%
23:00 +13°C° 0 mm 2 mps 757 mmHg 73%

23 September, Wednesday

Time Temperature Precipitation Wind Pressure Humidity
00:00 +12°C° 0 mm 2 mps 757 mmHg 74%
01:00 +12°C° 0 mm 2 mps 757 mmHg 76%
02:00 +12°C° 0 mm 2 mps 757 mmHg 77%
03:00 +10°C° 0 mm 2 mps 757 mmHg 79%
04:00 +10°C° 0 mm 2 mps 757 mmHg 80%
05:00 +10°C° 0 mm 2 mps 757 mmHg 82%
06:00 +9°C° 0 mm 2 mps 757 mmHg 83%
07:00 +13°C° 0 mm 2 mps 757 mmHg 75%
08:00 +15°C° 0 mm 2 mps 757 mmHg 67%
09:00 +17°C° 0 mm 3 mps 757 mmHg 59%
10:00 +18°C° 0 mm 3 mps 757 mmHg 54%
11:00 +20°C° 0 mm 3 mps 757 mmHg 49%
12:00 +21°C° 0 mm 3 mps 757 mmHg 44%
13:00 +22°C° 0 mm 3 mps 757 mmHg 41%
14:00 +22°C° 0 mm 3 mps 756 mmHg 39%
15:00 +24°C° 0 mm 3 mps 756 mmHg 37%
16:00 +21°C° 0 mm 3 mps 756 mmHg 40%
17:00 +20°C° 0 mm 2 mps 755 mmHg 44%
18:00 +18°C° 0 mm 2 mps 755 mmHg 48%
19:00 +17°C° 0 mm 2 mps 755 mmHg 50%
20:00 +17°C° 0 mm 2 mps 755 mmHg 52%
21:00 +16°C° 0 mm 3 mps 755 mmHg 54%
22:00 +14°C° 0 mm 3 mps 756 mmHg 54%
23:00 +14°C° 0 mm 3 mps 756 mmHg 55%
Show more